User: anonymous   Login
Location: Bangkok
(13.7500°N, 100.5170°E)
Time: 17:50:52
(UTC+07:00)
Language:

Cosmos 1898 Rocket - Orbit

View from above orbital plane
View from above orbital plane
View from above satellite
View from above satellite

Ground track
Ground track

The orbit data is extracted from the following two-line orbital elements,

1 18586U 87098B   17204.66808562 +.00000121 +00000-0 +50055-4 0  9998
2 18586 074.0051 228.1594 0022329 276.0535 221.5851 14.36786570552298
Epoch (UTC): 23 July 2017 16:02:02
Eccentricity: 0.0022329
inclination: 74.0051°
perigee height: 753 km
apogee height: 785 km
right ascension of ascending node: 228.1594°
argument of perigee: 276.0535°
revolutions per day: 14.36786570
mean anomaly at epoch: 221.5851°
orbit number at epoch: 55229

The dashed part of the orbit path shows where the satellite is in the earth's shadow,  

DLR